Weather History for Hutchinson, KS

Change the Weather History Date:

Thursday, November 21, 2013

  Actual Average Record
Temperature  
Mean Temperature 38 °F -  
Max Temperature 52 °F 51 °F 73 °F (2012)
Min Temperature 23 °F 28 °F 12 °F (2008)
Degree Days  
Heating Degree Days 27    
Moisture  
Dew Point 30 °F    
Average Humidity 83    
Maximum Humidity 93    
Minimum Humidity 75    
Precipitation  
Precipitation 0.00 in - - ()
Sea Level Pressure  
Sea Level Pressure 30.17 in    
Wind  
Wind Speed 14 mph (North)    
Max Wind Speed 23 mph    
Max Gust Speed 34 mph    
Visibility 7 miles    
Events Rain , Snow    
Averages and records for this station are not official NWS values.
T = Trace of Precipitation, MM = Missing Value Source: NWS Daily Summary

Daily Weather History Graph

Daily Weather History Graph

Search for Another Location

Airport:

Trip Planner

Search our weather history database for the weather conditions in past years. The results will help you decide how hot, cold, wet, or windy it might be!

Date:

Astronomy

Nov. 21, 2013 Rise Set
Actual Time 7:18 AM CST 5:15 PM CST
Civil Twilight 6:50 AM CST 5:44 PM CST
Nautical Twilight 6:18 AM CST 6:16 PM CST
Astronomical Twilight 5:46 AM CST 6:47 PM CST
Moon 8:53 PM CST (11/21) 10:26 AM CST (11/21)
Length of Visible Light 10h 53m
Length of Day
9h 56m
Waning Gibbous, 85% of the Moon is Illuminated
Nov 21
Waning Gibbous
Nov 25
Last Quarter
Dec 2
New
Dec 9
First Quarter
Dec 17
Full

Hourly Weather History & Observations

Time (CST) Temp. Windchill Dew Point Humidity Pressure Visibility Wind Dir Wind Speed Gust Speed Precip Events Conditions
12:52 AM 52.0 °F - 45.0 °F 77% 29.88 in 10.0 mi South 4.6 mph - N/A   Mostly Cloudy
1:52 AM 51.1 °F - 45.0 °F 80% 29.87 in 10.0 mi South 5.8 mph - 0.00 in   Mostly Cloudy
2:52 AM 51.1 °F - 45.0 °F 80% 29.89 in 10.0 mi South 11.5 mph - N/A   Overcast
3:52 AM 51.1 °F - 46.9 °F 86% 29.89 in 10.0 mi SSE 10.4 mph - 0.00 in Rain Light Rain
4:30 AM 51.8 °F - 48.2 °F 88% 29.94 in 9.0 mi North 12.7 mph - 0.00 in Rain Light Rain
4:45 AM 51.8 °F - 46.4 °F 82% 29.94 in 10.0 mi North 10.4 mph - 0.00 in   Overcast
4:52 AM 51.1 °F - 46.9 °F 86% 29.92 in 10.0 mi North 11.5 mph - 0.00 in   Overcast
5:13 AM 51.8 °F - 46.4 °F 82% 29.95 in 10.0 mi North 15.0 mph 21.9 mph 0.00 in   Overcast
5:24 AM 50.0 °F - 46.4 °F 87% 29.96 in 8.0 mi NNE 20.7 mph 27.6 mph 0.00 in   Overcast
5:32 AM 46.4 °F 39.2 °F 42.8 °F 87% 29.97 in 7.0 mi North 18.4 mph 27.6 mph 0.00 in   Overcast
5:52 AM 42.1 °F 32.8 °F 37.9 °F 85% 29.97 in 10.0 mi North 21.9 mph 27.6 mph 0.00 in   Overcast
6:01 AM 42.8 °F 34.0 °F 37.4 °F 81% 29.99 in 10.0 mi NNE 20.7 mph 34.5 mph 0.00 in Rain Light Rain
6:52 AM 37.9 °F 27.9 °F 33.1 °F 83% 30.03 in 9.0 mi NNE 19.6 mph 33.4 mph 0.00 in   Overcast
7:52 AM 36.0 °F 25.6 °F 30.0 °F 79% 30.06 in 9.0 mi NNE 18.4 mph 34.5 mph N/A   Overcast
8:52 AM 35.1 °F 24.8 °F 28.9 °F 78% 30.12 in 7.0 mi NNE 17.3 mph 26.5 mph 0.00 in   Drizzle
9:52 AM 34.0 °F 23.4 °F 28.0 °F 79% 30.15 in 6.0 mi North 17.3 mph 27.6 mph 0.00 in   Drizzle
10:52 AM 32.0 °F 20.5 °F 27.0 °F 82% 30.19 in 7.0 mi North 18.4 mph 28.8 mph 0.00 in   Overcast
11:52 AM 30.9 °F 18.7 °F 26.1 °F 82% 30.18 in 8.0 mi North 19.6 mph 28.8 mph N/A   Overcast
12:52 PM 28.9 °F 17.3 °F 25.0 °F 85% 30.20 in 3.0 mi North 16.1 mph 26.5 mph N/A   Overcast
1:01 PM 28.4 °F 16.2 °F 24.8 °F 86% 30.20 in 2.5 mi North 17.3 mph 26.5 mph 0.00 in Rain Light Freezing Rain
1:23 PM 28.4 °F 17.0 °F 24.8 °F 86% 30.20 in 3.0 mi North 15.0 mph 25.3 mph 0.00 in Rain Light Freezing Rain
1:34 PM 28.4 °F 15.1 °F 24.8 °F 86% 30.21 in 2.5 mi North 20.7 mph 29.9 mph 0.00 in Rain Light Freezing Rain
1:40 PM 28.4 °F 15.8 °F 24.8 °F 86% 30.21 in 2.0 mi North 18.4 mph 28.8 mph 0.00 in Snow Light Snow
1:52 PM 28.9 °F 16.9 °F 25.0 °F 85% 30.21 in 1.8 mi North 17.3 mph 25.3 mph 0.00 in Snow Light Snow
2:08 PM 28.4 °F 16.2 °F 24.8 °F 86% 30.21 in 2.5 mi North 17.3 mph 27.6 mph 0.00 in Snow Light Snow
2:17 PM 28.4 °F 15.8 °F 26.6 °F 93% 30.21 in 3.0 mi North 18.4 mph 27.6 mph 0.00 in   Overcast
2:25 PM 28.4 °F 18.0 °F 26.6 °F 93% 30.22 in 4.0 mi North 12.7 mph 27.6 mph 0.00 in Rain Light Freezing Rain
2:33 PM 30.2 °F 18.1 °F 26.6 °F 86% 30.22 in 4.0 mi North 18.4 mph 26.5 mph 0.00 in Rain Light Freezing Rain
2:52 PM 28.9 °F 17.3 °F 25.0 °F 85% 30.24 in 6.0 mi North 16.1 mph 26.5 mph 0.00 in Rain Light Freezing Rain
3:04 PM 28.4 °F 15.4 °F 24.8 °F 86% 30.24 in 6.0 mi North 19.6 mph 29.9 mph 0.00 in   Haze
3:26 PM 28.4 °F 14.7 °F 24.8 °F 86% 30.25 in 4.0 mi North 21.9 mph 26.5 mph 0.00 in Rain Light Freezing Rain
3:52 PM 28.0 °F 14.6 °F 24.1 °F 85% 30.28 in 3.0 mi North 20.7 mph 33.4 mph 0.00 in Rain Light Freezing Rain
4:24 PM 28.4 °F 14.4 °F 23.0 °F 80% 30.31 in 7.0 mi North 23.0 mph 29.9 mph 0.00 in   Overcast
4:52 PM 27.0 °F 13.5 °F 23.0 °F 85% 30.32 in 5.0 mi North 19.6 mph 29.9 mph 0.00 in Rain Light Freezing Rain
5:24 PM 26.6 °F 13.8 °F 21.2 °F 80% 30.33 in 10.0 mi North 17.3 mph 29.9 mph 0.00 in   Overcast
5:52 PM 26.1 °F 12.3 °F 21.0 °F 81% 30.38 in 10.0 mi North 19.6 mph 28.8 mph 0.00 in   Overcast
6:52 PM 26.1 °F 11.3 °F 19.9 °F 78% 30.41 in 10.0 mi North 23.0 mph 29.9 mph N/A   Overcast
7:52 PM 25.0 °F 11.7 °F 19.0 °F 78% 30.45 in 10.0 mi North 17.3 mph 28.8 mph N/A   Overcast
8:52 PM 25.0 °F 10.6 °F 19.0 °F 78% 30.47 in 10.0 mi North 20.7 mph 28.8 mph N/A   Overcast
9:52 PM 25.0 °F 9.9 °F 18.0 °F 75% 30.50 in 10.0 mi North 23.0 mph 33.4 mph N/A   Overcast
10:52 PM 24.1 °F 10.6 °F 17.1 °F 75% 30.52 in 10.0 mi North 17.3 mph 31.1 mph N/A   Overcast
11:52 PM 23.0 °F 8.0 °F 17.1 °F 78% 30.57 in 10.0 mi North 20.7 mph 26.5 mph N/A   Overcast